Tracking 31027 objects as of 19-Jul-2025
HD Live streaming from Space Station
objects crossing your sky now

SES MPOWER-A F2

Track SES MPOWER-A F2 now!
10-day predictions


NORAD ID: 54756
Int'l Code: 2022-174B
Perigee: 8,064.9 km
Apogee: 8,081.1 km
Inclination: 0.1 °
Period: 287.9 minutes
Semi major axis: 14444 km
RCS: Unknown
Launch date: December 16, 2022
Source: SOCIETE EUROPEENNE DES SATELLITES (SES)
Launch site: AIR FORCE EASTERN TEST RANGE (AFETR)
Your satellite tracking list
STARLINK-5129
Track 1 satellite(s)




NASA's NSSDC Master Catalog

Two Line Element Set (TLE):
1 54756U 22174B   25197.65955525 -.00000011  00000-0  00000-0 0  9992
2 54756   0.0528  13.6330 0005624  97.0617 249.3649  5.00115990 48657
Source of the keplerian elements: AFSPC